Location: Abraham Lincoln Continuation High School
(33.9711°N, 117.3662°W)
Time: 10:43:21
(UTC+00:00)

X-37B - Pass Details

Date: 25 January 2021
Orbit: 383 x 391 km, 45.0° (Epoch: 27 February)

Event Time Altitude Azimuth Distance (km) Brightness Sun altitude
Rises 02:05:02 0° 298° (WNW) 2,271 5.2 -11.1°
Reaches altitude 10° 02:08:14 10° 333° (NNW) 1,419 3.6 -11.7°
Maximum altitude 02:09:27 12° 356° (N) 1,325 3.2 -12.0°
Drops below altitude 10° 02:10:41 10° 18° (NNE) 1,420 3.1 -12.2°
Enters shadow 02:10:54 - 22° (NNE) 1,458 3.1 -12.3°
